Flag for U.S.A. Weather past 2 weeks in Avalon (Santa Catalina Island), California, U.S.A.

Now
62 °F

Sunny.


Feels Like: 62 °F
Forecast: 62 / 71 °F
Wind: 5 mph from Northwest

Location: Catalina Airport

Current Time: Jan 28, 2015 at 12:40:22 PM

Latest Report: Jan 28, 2015 at 11:51 AM


Visibility: 10 mi

Pressure: 30.11 "Hg

Humidity: 52%

Dew point: 44 °F

Location of Avalon (Santa Catalina Island)Location

Historic Weather in Avalon (Santa Catalina Island) — Graph

°F

Avalon (Santa Catalina Island) temperature yesterday

Maximum temperature yesterday: 62 °F (at 12:51 PM)
Minimum temperature yesterday: 54 °F (at 12:51 AM)
Average temperature yesterday: 57 °F

Past Weeks' High & Low Weather Summary

 TemperatureHumidityPressure
High74 °F (Jan 25, 11:51 AM)97% (Jan 20, 3:51 PM)30.24 "Hg (Jan 20, 3:51 PM)
Low49 °F (Jan 21, 5:51 AM)10% (Jan 23, 3:51 PM)29.93 "Hg (Jan 20, 1:51 PM)
Average61 °F39%30.10 "Hg
* Reported Jan 13 10:51 AM — Jan 28 10:51 AM, Avalon (Santa Catalina Island), Weather by CustomWeather, © 2014

Note: Actual official high and low records may vary slightly from our data, if they occured in-between our weather recording intervals... More about our weather records

Advertising

Avalon (Santa Catalina Island) weather history for previous 24 hours

 ConditionsComfort  
Time TempWeatherWind HumidityBarometerVisibility
10:51 AM
Jan 28
63 °FSunny.8 mph52%30.14 "Hg10 mi
9:51 AM61 °FSunny.6 mph56%30.14 "Hg10 mi
8:51 AM61 °FSunny.8 mph58%30.14 "Hg10 mi
7:51 AM61 °FSunny.6 mph54%30.14 "Hg10 mi
6:51 AM59 °FClear.6 mph56%30.14 "Hg10 mi
5:51 AM58 °FClear.7 mph58%30.13 "Hg10 mi
4:51 AM56 °FClear.7 mph72%30.14 "Hg10 mi
3:51 AM56 °FClear.7 mph65%30.13 "Hg10 mi
2:51 AM57 °FClear.7 mph60%30.15 "Hg10 mi
1:51 AM58 °FClear.3 mph56%30.16 "Hg10 mi
12:51 AM58 °FClear.3 mph60%30.16 "Hg10 mi
11:51 PM
Jan 27
54 °FClear.6 mph80%30.17 "Hg10 mi
10:51 PM55 °FClear.9 mph77%30.16 "Hg10 mi
9:51 PM54 °FClear.9 mph74%30.17 "Hg10 mi
8:51 PM55 °FClear.9 mph69%30.17 "Hg10 mi
7:51 PM55 °FClear.12 mph69%30.19 "Hg10 mi
6:51 PM56 °FClear.8 mph67%30.19 "Hg10 mi
5:51 PM57 °FClear.8 mph69%30.16 "Hg10 mi
4:51 PM58 °FSunny.6 mph81%30.16 "Hg10 mi
3:51 PM59 °FSunny.7 mph72%30.17 "Hg10 mi
2:51 PM61 °FSunny.7 mph58%30.17 "Hg10 mi
1:51 PM61 °FSunny.6 mph60%30.16 "Hg10 mi
12:51 PM62 °FSunny.5 mph56%30.17 "Hg10 mi
Weather by CustomWeather, © 2014

See weather overviewHow to use our weather pages